Waarnemingen

Advertentie
Mijn weer
Vigo Peinador, Spanje (8045): temperatuur & dauwpunt: 11.10.2018 23:00:00 - 17.10.2018 23:00:00 (CEST)Vigo Peinador, Spanje (8045): windsnelheid: 11.10.2018 23:00:00 - 17.10.2018 23:00:00 (CEST)Vigo Peinador, Spanje (8045): windrichting: 11.10.2018 23:00:00 - 17.10.2018 23:00:00 (CEST)Vigo Peinador, Spanje (8045): luchtdruk: 11.10.2018 23:00:00 - 17.10.2018 23:00:00 (CEST)Vigo Peinador, Spanje (8045): zicht: 11.10.2018 23:00:00 - 17.10.2018 23:00:00 (CEST)
Datum & Tijd tt [°C] td [°C] ff [km/u] ff [kn] dd ppp [hPa] vv [km]
17.10.2018 23:00:00 13,0 13,0 5 3 NNO - 1,0
17.10.2018 22:00:00 12,8 12,8 5 3 N 1014,5 3,0
17.10.2018 21:00:00 12,9 12,9 13 7 N 1014,7 2,5
17.10.2018 20:00:00 13,1 13,1 5 3 NW 1014,6 0,9
17.10.2018 19:00:00 13,5 13,5 0 0 N 1014,2 6
17.10.2018 18:00:00 13,3 13,3 8 4 WZW 1014,5 8
17.10.2018 17:00:00 13,5 13,5 2 1 ZO 1015,2 0,9
17.10.2018 16:00:00 13,4 13,4 0 0 N 1015,5 0,9
17.10.2018 15:00:00 13,9 13,9 2 1 - 1016,0 1,5
17.10.2018 14:00:00 14,5 13,9 5 3 W 1016,8 4,0
17.10.2018 13:00:00 15,0 14,7 2 1 - 1017,1 5
17.10.2018 12:00:00 14,1 14,1 5 3 - 1017,5 2,0
17.10.2018 11:00:00 12,9 12,9 9 5 ZZW 1018,0 0,5
17.10.2018 10:00:00 11,2 11,2 9 5 ZW 1018,2 0,1
17.10.2018 09:00:00 11,6 11,6 11 6 ZW 1018,0 0,2
17.10.2018 08:00:00 12,4 12,4 8 4 WZW 1018,7 4,0
17.10.2018 07:00:00 11,7 11,7 9 5 ZZW 1018,7 0,1
17.10.2018 06:00:00 12,4 12,4 11 6 ZW 1018,6 10
17.10.2018 05:00:00 12,5 12,5 8 4 WZW 1018,5 10
17.10.2018 04:00:00 12,6 12,6 8 4 WZW 1018,7 10
17.10.2018 03:00:00 12,4 12,4 8 4 WZW 1019,1 10
17.10.2018 02:00:00 12,3 12,3 5 3 WZW 1019,4 10
17.10.2018 01:00:00 13,1 13,1 5 3 NNW 1019,4 10
17.10.2018 00:00:00 13,2 13,2 5 3 N 1019,6 10
16.10.2018 23:00:00 13,9 13,9 5 3 NW 1019,5 10
16.10.2018 22:00:00 13,9 13,4 4 2 - 1019,1 10
16.10.2018 21:00:00 14,3 13,3 5 3 NW 1019,0 10
16.10.2018 20:00:00 15,1 13,2 8 4 WNW 1018,5 10
16.10.2018 19:00:00 16,8 13,7 15 8 W 1017,8 10
16.10.2018 18:00:00 18,8 14,7 13 7 WZW 1017,3 10
16.10.2018 17:00:00 20,1 14,8 5 3 - 1017,2 10
16.10.2018 16:00:00 18,8 13,3 8 4 N 1017,1 10
16.10.2018 15:00:00 20,7 13,4 4 2 Z 1016,9 10
16.10.2018 14:00:00 18,9 15,1 5 3 - 1017,4 10
16.10.2018 13:00:00 17,8 15,6 5 3 - 1017,4 10
16.10.2018 12:00:00 15,1 15,1 4 2 - 1017,4 8
16.10.2018 11:00:00 13,9 13,9 0 0 N 1017,0 2,5
16.10.2018 10:00:00 13,6 13,6 2 1 - 1016,4 1,0
16.10.2018 09:00:00 13,2 13,2 4 2 - 1015,4 0,5
16.10.2018 08:00:00 13,6 13,6 4 2 - 1014,8 2,5
16.10.2018 07:00:00 13,8 13,8 5 3 ZZW 1014,2 3,0
16.10.2018 06:00:00 13,8 13,8 2 1 ZZW 1013,6 1,4
16.10.2018 05:00:00 13,9 13,9 5 3 ZZW 1013,2 3,5
16.10.2018 04:00:00 14,0 14,0 5 3 ZW 1013,1 7
16.10.2018 03:00:00 14,1 14,1 2 1 ZZW 1013,1 1,5
16.10.2018 02:00:00 14,1 14,1 0 0 N 1012,8 2,1
16.10.2018 01:00:00 14,1 14,1 0 0 N 1012,5 0,3
16.10.2018 00:00:00 14,1 14,1 8 4 ZZW 1011,9 0,3
15.10.2018 23:00:00 14,5 14,5 0 0 N 1011,2 0,5
15.10.2018 22:00:00 14,5 14,5 4 2 N 1010,4 6
15.10.2018 21:00:00 14,7 14,7 5 3 N 1009,9 3,2
15.10.2018 20:00:00 15,1 15,1 2 1 ZZW 1008,7 3,5
15.10.2018 19:00:00 15,3 15,3 5 3 Z 1007,7 3,5
15.10.2018 18:00:00 15,1 15,1 9 5 ZZO 1007,2 -
15.10.2018 17:00:00 15,2 15,2 8 4 Z 1006,3 0,9
15.10.2018 16:00:00 15,3 15,3 5 3 - 1005,6 1,5
15.10.2018 15:00:00 15,0 15,0 9 5 Z 1005,0 0,8
15.10.2018 14:00:00 14,5 14,5 9 5 ZZO 1005,1 0,5
15.10.2018 13:00:00 14,1 14,1 15 8 Z 1004,5 0,9
15.10.2018 12:00:00 13,7 13,7 15 8 Z 1004,0 0,2
15.10.2018 11:00:00 13,2 13,2 11 6 Z 1004,0 0,2
15.10.2018 10:00:00 12,6 12,6 9 5 Z 1003,8 0,9
15.10.2018 09:00:00 11,8 11,8 9 5 ZZO 1003,3 0,8
15.10.2018 08:00:00 11,4 11,4 16 9 Z 1003,5 0,2
15.10.2018 07:00:00 10,9 10,9 16 9 ZZO 1004,1 0,3
15.10.2018 06:00:00 10,6 10,6 24 13 Z 1003,9 0,8
15.10.2018 05:00:00 10,6 10,6 26 14 Z 1005,5 1,0
15.10.2018 04:00:00 10,5 10,5 31 17 Z 1006,1 1,2
15.10.2018 03:00:00 10,8 10,8 22 12 Z 1008,0 7
15.10.2018 02:00:00 10,9 10,9 21 11 Z 1009,8 9
15.10.2018 01:00:00 11,6 10,5 22 12 Z 1011,1 10
15.10.2018 00:00:00 11,2 10,7 18 10 Z 1012,4 10
14.10.2018 23:00:00 11,3 10,7 13 7 Z 1013,0 10
14.10.2018 22:00:00 11,7 10,3 9 5 Z 1013,4 10
14.10.2018 21:00:00 12,1 10,2 5 3 ZW 1013,4 10
14.10.2018 20:00:00 12,8 10,5 5 3 ZW 1013,7 10
14.10.2018 19:00:00 13,5 9,3 9 5 WZW 1013,6 10
14.10.2018 18:00:00 14,3 8,1 16 9 W 1013,6 10
14.10.2018 17:00:00 14,3 10,6 16 9 W 1013,7 20
14.10.2018 16:00:00 15,1 10,1 13 7 W 1014,1 10
14.10.2018 15:00:00 15,1 10,0 15 8 NNW 1014,0 10
14.10.2018 14:00:00 14,6 10,3 8 4 NNW 1014,5 20
14.10.2018 13:00:00 13,3 11,7 11 6 NW 1014,9 10
14.10.2018 12:00:00 13,3 11,0 16 9 NW 1014,6 10
14.10.2018 11:00:00 12,5 10,7 16 9 NNW 1013,7 9
14.10.2018 10:00:00 12,2 11,1 16 9 NW 1012,5 9
14.10.2018 09:00:00 11,6 11,0 15 8 NW 1011,7 9
14.10.2018 08:00:00 10,9 10,9 9 5 WNW 1010,9 3,0
14.10.2018 07:00:00 10,2 10,2 8 4 WZW 1010,6 10
14.10.2018 06:00:00 9,8 9,7 4 2 - 1010,5 10
14.10.2018 05:00:00 10,0 8,9 13 7 WNW 1009,9 8
14.10.2018 04:00:00 9,6 9,6 18 10 NNO 1009,0 7
14.10.2018 03:00:00 10,3 10,3 22 12 NNW 1008,4 6
14.10.2018 02:00:00 10,6 10,6 22 12 N 1007,1 3,0
14.10.2018 01:00:00 11,0 11,0 13 7 N 1006,6 3,0
14.10.2018 00:00:00 10,8 10,8 26 14 N 1006,6 5
13.10.2018 23:00:00 11,1 11,1 29 16 N 1008,2 6
13.10.2018 22:00:00 12,9 12,9 35 19 N 1007,4 8
13.10.2018 21:00:00 15,0 15,0 11 6 NNO 1007,5 6
13.10.2018 20:00:00 18,4 14,9 2 1 N 1007,4 10
13.10.2018 19:00:00 19,4 13,1 5 3 ZO 1008,6 10
13.10.2018 18:00:00 20,8 13,7 15 8 ZZW 1009,7 10
13.10.2018 17:00:00 22,5 14,6 26 14 ZZW 1009,6 40
13.10.2018 16:00:00 23,3 14,8 29 16 Z 1010,0 10
13.10.2018 15:00:00 23,6 15,2 28 15 Z 1010,1 10
13.10.2018 14:00:00 22,6 15,1 28 15 Z 1011,5 10
13.10.2018 13:00:00 21,9 12,7 18 10 Z 1012,7 10
13.10.2018 12:00:00 21,2 11,2 21 11 Z 1013,6 10
13.10.2018 11:00:00 20,0 11,9 16 9 Z 1014,0 40
13.10.2018 10:00:00 18,9 10,5 11 6 Z 1014,7 10
13.10.2018 09:00:00 18,4 10,7 15 8 Z 1014,5 10
13.10.2018 08:00:00 18,1 11,8 16 9 ZZW 1014,0 10
13.10.2018 07:00:00 17,9 12,8 11 6 ZW 1014,1 10
13.10.2018 06:00:00 18,6 12,8 22 12 Z 1013,6 10
13.10.2018 05:00:00 18,4 13,9 18 10 Z 1014,1 10
13.10.2018 04:00:00 18,3 14,8 22 12 Z 1014,4 10
13.10.2018 03:00:00 17,8 16,1 26 14 ZZW 1015,3 9
13.10.2018 02:00:00 18,3 15,6 28 15 Z 1015,4 10
13.10.2018 01:00:00 18,7 15,9 29 16 Z 1016,1 9
13.10.2018 00:00:00 18,7 17,0 31 17 ZZW 1016,8 9
12.10.2018 23:00:00 18,4 17,1 31 17 Z 1016,9 9
12.10.2018 22:00:00 17,9 17,3 31 17 ZZW 1017,3 5
12.10.2018 21:00:00 17,4 17,2 31 17 Z 1017,0 3,0
12.10.2018 20:00:00 17,2 17,2 37 20 Z 1017,4 7
12.10.2018 19:00:00 17,2 17,2 35 19 Z 1017,4 1,5
12.10.2018 18:00:00 17,4 17,4 29 16 Z 1017,2 1,0
12.10.2018 17:00:00 17,3 17,3 29 16 Z 1017,1 0,8
12.10.2018 16:00:00 16,8 16,8 31 17 Z 1017,1 1,5
12.10.2018 15:00:00 16,6 16,6 31 17 Z 1017,2 0,1
12.10.2018 14:00:00 16,6 16,6 37 20 Z 1017,2 0,8
12.10.2018 13:00:00 16,6 16,6 37 20 Z 1016,9 1,2
12.10.2018 12:00:00 16,1 16,1 31 17 Z 1016,9 0,3
12.10.2018 11:00:00 15,9 15,9 34 18 Z 1016,6 0,8
12.10.2018 10:00:00 15,4 15,4 31 17 Z 1016,2 0,8
12.10.2018 09:00:00 15,1 15,1 31 17 ZZW 1015,6 1,4
12.10.2018 08:00:00 16,1 15,3 35 19 Z 1014,6 6
12.10.2018 07:00:00 16,5 14,3 28 15 Z 1013,9 10
12.10.2018 06:00:00 15,9 13,9 28 15 Z 1014,2 10
12.10.2018 05:00:00 15,5 13,3 26 14 Z 1014,0 10
12.10.2018 04:00:00 14,9 12,6 24 13 Z 1014,2 10
12.10.2018 03:00:00 14,4 12,4 24 13 ZZW 1014,4 10
12.10.2018 02:00:00 14,4 12,4 24 13 Z 1014,4 10
12.10.2018 01:00:00 14,7 12,4 29 16 ZZW 1014,2 10
12.10.2018 00:00:00 14,9 12,8 22 12 Z 1013,7 10
11.10.2018 23:00:00 14,9 12,4 21 11 Z 1013,6 10

tt = temperatuur
td = dauwpunt
ff = windsnelheid
dd = windrichting
ppp = luchtdruk
vv = zicht

Weerstations in de omgeving